Starlink 34533

operational
NORAD ID: 64715 Int'l Des: 2025-142 Owner: SPXS Country: US Constellation: starlink
LEOCIRCULAR

About Starlink 34533

Description loading...

Live Position

Loading 3D Globe...

Upcoming Passes

Altitude History

Altitude vs Time

uPlot chart will show altitude changes over time

Two-Line Element Set

1 64715U 25142V 26102.91668981 -.00032316 00000-0 -27114-2 0 9990
2 64715 70.0001 228.1418 0003214 272.6604 247.7916 14.98353593 6109
Epoch: Apr 12, 2026 • Age: 7 hours

Current Status

Altitude 595.0 km
Velocity 7.56 km/s
Sub-Earth Point -68.58°S, 115.34°W
Launch Date Jun 28, 2025
Age 0.7 years
Type internet

Technical Details

Classification Payload
Mass 575.00 kg
Dry Mass 530.00 kg
Total Mass 575.00 kg
Length 0.30 m
Diameter 4.10 m
Span 29.00 m
Shape Box + pan
Manufacturer SPXS
Bus Type Starlink V2MO
Phase Status In Orbit
Owner/State SPXS/US

Large Constellations

Loading constellations...